Location: Borovka
(49.7741°N, 14.5280°E)
Time: 17:35:31
(UTC+00:00)

RS-15 - Visible Passes

Search period start: 14 March 2026 00:00
Search period end: 24 March 2026 00:00
Orbit: 1894 x 2151 km, 64.8° (Epoch: 14 March)

Date Brightness Start Highest point End Pass type
(mag) Time Alt. Az. Time Alt. Az. Time Alt. Az.
14 Mar 8.8 01:25:17 10° NW 01:36:00 45° NNE 01:47:12 10° E visible
14 Mar 8.1 03:38:21 10° NW 03:49:52 89° SW 04:01:55 10° SE visible
14 Mar 8.3 18:08:35 10° SSE 18:18:00 36° ESE 18:27:36 10° NE visible
14 Mar 7.9 20:18:23 10° SW 20:29:20 80° NW 20:40:42 10° NE visible
14 Mar 8.9 22:33:16 10° W 22:43:35 42° NNW 22:54:17 10° NE visible
15 Mar 8.9 00:48:51 10° NW 00:59:22 42° NNE 01:10:19 10° E visible
15 Mar 8.2 03:02:14 10° NW 03:13:43 78° NE 03:25:45 10° SE visible
15 Mar 8.6 17:33:58 10° SSE 17:42:28 27° ESE 17:51:05 10° NE visible
15 Mar 7.8 19:42:19 10° SW 19:53:14 87° SE 20:04:32 10° NE visible
15 Mar 8.7 21:56:30 10° W 22:06:57 45° NNW 22:17:49 10° NE visible
16 Mar 9.0 00:12:20 10° WNW 00:22:39 39° N 00:33:25 10° ENE visible
16 Mar 8.3 02:26:05 10° NW 02:37:28 68° NE 02:49:23 10° SE visible
16 Mar 8.3 04:38:50 10° NW 04:49:39 49° WSW 05:00:55 10° S visible
16 Mar 7.8 19:06:27 10° SSW 19:17:15 73° ESE 19:28:24 10° NE visible
16 Mar 8.6 21:19:47 10° WSW 21:30:23 51° NNW 21:41:27 10° NE visible
16 Mar 9.0 23:35:42 10° WNW 23:45:54 38° N 23:56:32 10° ENE visible
17 Mar 8.5 01:49:54 10° NW 02:01:07 59° NE 02:12:51 10° ESE visible
17 Mar 8.1 04:02:38 10° NW 04:13:50 61° WSW 04:25:32 10° SSE visible
17 Mar 7.9 18:30:50 10° SSW 18:41:22 59° ESE 18:52:13 10° NE visible
17 Mar 8.4 20:43:11 10° WSW 20:53:56 58° NW 21:05:09 10° NE visible
17 Mar 9.0 22:58:59 10° WNW 23:09:08 38° N 23:19:43 10° ENE visible
18 Mar 8.7 01:13:39 10° NW 01:24:40 51° NNE 01:36:10 10° ESE visible
18 Mar 8.0 03:26:30 10° NW 03:37:55 74° WSW 03:49:51 10° SSE visible
18 Mar 8.1 17:55:28 10° S 18:05:36 47° ESE 18:16:00 10° NE visible
18 Mar 8.2 20:06:43 10° SW 20:17:35 67° NW 20:28:55 10° NE visible
18 Mar 9.0 22:22:12 10° WNW 22:32:24 39° N 22:43:00 10° ENE visible
19 Mar 8.8 00:37:20 10° NW 00:48:06 46° NNE 00:59:21 10° E visible
19 Mar 8.0 02:50:22 10° NW 03:01:54 87° SW 03:13:57 10° SE visible
19 Mar 8.0 19:30:25 10° SW 19:41:22 78° NW 19:52:44 10° NE visible
19 Mar 8.9 21:45:24 10° W 21:55:41 41° NNW 22:06:24 10° NE visible
20 Mar 8.9 00:00:55 10° NW 00:11:29 42° NNE 00:22:28 10° E visible
20 Mar 8.1 02:14:15 10° NW 02:25:46 80° NE 02:37:49 10° SE visible
20 Mar 8.5 04:27:11 10° NW 04:37:19 38° WSW 04:47:51 10° S visible
20 Mar 7.9 18:54:19 10° SW 19:05:15 89° SE 19:16:35 10° NE visible
20 Mar 8.8 21:08:36 10° W 21:19:02 45° NNW 21:29:54 10° NE visible
20 Mar 9.0 23:24:24 10° NW 23:34:46 40° NNE 23:45:34 10° ENE visible
21 Mar 8.3 01:38:07 10° NW 01:49:32 69° NE 02:01:29 10° SE visible
21 Mar 8.2 03:50:52 10° NW 04:01:37 48° WSW 04:12:49 10° S visible
21 Mar 7.9 18:18:25 10° SSW 18:29:14 75° ESE 18:40:26 10° NE visible
21 Mar 8.7 20:31:53 10° WSW 20:42:28 50° NNW 20:53:30 10° NE visible
21 Mar 9.1 22:47:48 10° WNW 22:58:01 38° N 23:08:41 10° ENE visible
22 Mar 8.4 01:01:56 10° NW 01:13:12 60° NE 01:24:57 10° ESE visible
22 Mar 8.1 03:14:40 10° NW 03:25:50 59° WSW 03:37:29 10° SSE visible
22 Mar 8.0 17:42:45 10° SSW 17:53:21 61° ESE 18:04:16 10° NE visible
22 Mar 8.5 19:55:16 10° WSW 20:06:00 57° NW 20:17:12 10° NE visible
22 Mar 9.1 22:11:05 10° WNW 22:21:15 38° N 22:31:52 10° ENE visible
23 Mar 8.6 00:25:42 10° NW 00:36:45 52° NNE 00:48:17 10° ESE visible
23 Mar 8.0 02:38:30 10° NW 02:49:56 72° WSW 03:01:51 10° SSE visible
23 Mar 8.3 19:18:46 10° WSW 19:29:39 65° NW 19:40:58 10° NE visible
23 Mar 9.1 21:34:19 10° WNW 21:44:30 39° N 21:55:07 10° ENE visible
